Location: Malvern Link
(52.1333°N, 2.3000°W)
Time: 15:47:32
(UTC+00:00)

Cosmos 1634 Rocket - Pass Details

Date: 08 December 2021
Orbit: 959 x 993 km, 82.9° (Epoch: 23 January)

Event Time Altitude Azimuth Distance (km) Brightness Sun altitude
Exits shadow 04:07:50 35° 143° (SE) 1,536 5.1 -35.0°
Drops below altitude 10° 04:11:18 10° 157° (SSE) 2,708 6.5 -34.5°
Sets 04:13:49 0° 160° (SSE) 3,646 7.1 -34.1°
